Tracking 29495 objects as of 7-Sep-2024
HD Live streaming from Space Station
objects crossing your sky now

FENGYUN 1C DEB

Track FENGYUN 1C DEB now!
10-day predictions


NORAD ID: 32089
Int'l Code: 1999-025CQF
Perigee: 776.5 km
Apogee: 942.4 km
Inclination: 98.7 °
Period: 102.0 minutes
Semi major axis: 7230 km
RCS: 0.0109 m2 (small)
Launch date: May 10, 1999
Source: People's Republic of China (PRC)
Launch site: Taiyaun Space Center, China (TSC)

Note: This is SATELLITE DEBRIS
Your satellite tracking list
Your tracking list is empty




NASA's NSSDC Master Catalog

Two Line Element Set (TLE):
1 32089U 99025CQF 24250.25814409  .00005507  00000-0  28443-2 0  9993
2 32089  98.6679 264.5888 0114677   4.9547 355.2732 14.12068583880804
Source of the keplerian elements: AFSPC